SES-8

Last updated on Sat Aug 15 2026 00:02:59 GMT+0000 (Coordinated Universal Time)

1 39460U 13071A 26226.58906374 -.00000285 00000+0 00000+0 0 9998 2 39460 0.0583 272.6682 0002472 208.5099 148.8736 1.00272391 45013
UTC large
Height (km)
Speed (km/s)
/
Latitude / Longitude
Inclination (degrees)
Orbital Period (minutes)
Azimuth
Elevation
Range (km)
Doppler Factor

Next 0 passes for location: London (51.5072 / 0.1276)

No passes found over London.
SES-8